Home > Weather > Daytona Beach > Past weeks

Flag for U.S.A. Weather for the Past 2 Weeks in Daytona Beach, Florida, U.S.A.

Now
65 °F

Partly sunny.


Feels Like: 65 °F
Forecast: 48 / 63 °F
Wind: 9 mph from East

Location: Daytona Beach Regional Airport

Current Time: Feb 14, 2016 at 4:30:55 PM

Latest Report: Feb 14, 2016 at 3:53 PM


Visibility: 10 mi

Pressure: 30.24 "Hg

Humidity: 51%

Dew point: 46 °F

Location of Daytona BeachLocation

Historic Weather in Daytona Beach — Graph

°F

Daytona Beach Temperature Yesterday

Maximum temperature yesterday: 62 °F (at 10:53 AM)
Minimum temperature yesterday: 52 °F (at 11:53 PM)
Average temperature yesterday: 57 °F

High & Low Weather Summary for the Past Weeks

 TemperatureHumidityPressure
High83 °F (Feb 3, 12:53 PM)100% (Jan 31, 3:53 AM)30.35 "Hg (Jan 31, 3:53 AM)
Low36 °F (Feb 10, 6:53 AM)17% (Feb 10, 3:53 PM)29.82 "Hg (Feb 8, 9:53 PM)
Average58 °F71%30.12 "Hg
* Reported Jan 30 2:53 PM — Feb 14 2:53 PM, Daytona Beach, Weather by CustomWeather, © 2016

Note: Actual official high and low records may vary slightly from our data, if they occured in-between our weather recording intervals... More about our weather records

Advertising

Daytona Beach Weather History for the Previous 24 Hours

 ConditionsComfort  
Time TempWeatherWind HumidityBarometerVisibility
2:53 PM
Sun, Feb 14
66 °FPartly sunny.10 mph49%30.24 "Hg10 mi
1:53 PM63 °FBroken clouds.10 mph54%30.26 "Hg10 mi
12:53 PM63 °FPartly sunny.10 mph56%30.28 "Hg10 mi
11:53 AM64 °FPartly sunny.8 mph56%30.30 "Hg10 mi
10:53 AM64 °FPartly sunny.10 mph54%30.31 "Hg10 mi
9:53 AM62 °FPartly sunny.12 mph58%30.31 "Hg10 mi
8:53 AM54 °FPassing clouds.6 mph69%30.29 "Hg10 mi
7:53 AM45 °FPassing clouds.3 mph86%30.27 "Hg10 mi
6:53 AM41 °FPassing clouds.3 mph86%30.27 "Hg10 mi
5:53 AM40 °FClear.3 mph89%30.26 "Hg10 mi
4:53 AM41 °FClear.3 mph86%30.25 "Hg10 mi
3:53 AM42 °FClear.3 mph82%30.25 "Hg10 mi
2:53 AM43 °FClear.No wind79%30.26 "Hg10 mi
1:53 AM46 °FClear.5 mph71%30.28 "Hg10 mi
12:53 AM51 °FClear.6 mph54%30.30 "Hg10 mi
11:53 PM
Sat, Feb 13
52 °FClear.8 mph50%30.30 "Hg10 mi
10:53 PM53 °FClear.12 mph52%30.30 "Hg10 mi
9:53 PM53 °FClear.12 mph56%30.30 "Hg10 mi
8:53 PM53 °FClear.10 mph59%30.29 "Hg10 mi
7:53 PM53 °FClear.7 mph59%30.27 "Hg10 mi
6:53 PM53 °FClear.9 mph61%30.25 "Hg10 mi
5:53 PM55 °FSunny.15 mph57%30.25 "Hg10 mi
4:53 PM58 °FSunny.10 mph50%30.23 "Hg10 mi
Weather by CustomWeather, © 2016

See weather overviewHow to use our weather pages